Regional Weather Roundup
Issued by NWS

Home | Current Version | Previous Version | Graphics & Text | Print | Product List | Glossary On
Versions: 1 2 3 4 5 6 7 8 9 10 11 12 13 14 15 16 17 18 19 20 21 22 23 24 25 26 27 28 29 30 31 32 33 34 35 36 37 38 39 40 41 42 43 44 45 46 47 48 49 50
000
ASUS43 KLOT 201800
RWRIL

ILLINOIS REGIONAL WEATHER ROUNDUP
NATIONAL WEATHER SERVICE CHICAGO/ROMEOVILLE IL
100 PM CDT SAT SEP 20 2014

NOTE: "FAIR" INDICATES FEW OR NO CLOUDS BELOW 12,000 FEET WITH NO
SIGNIFICANT WEATHER AND/OR OBSTRUCTIONS TO VISIBILITY.

* THESE STATIONS ARE NOT UNDER NWS QUALITY CONTROL. THEY ALSO MAY NOT
  REPORT WEATHER SUCH AS PRECIPITATION OR FOG.

ILZ001-002-007-009-015-016-024-201900-
NORTHWEST ILLINOIS

CITY           SKY/WX    TMP DP  RH WIND       PRES   REMARKS
MOLINE         CLOUDY    78  68  71 W17G23    29.88S HX  80
6HR MIN TEMP:  63; 6HR MAX TEMP:  79; 6HR PCP: TRACE;

STERLING*      CLOUDY    73  66  78 W10       29.87F
$$

ILZ003-004-008-010-011-017-018-201900-
NORTH CENTRAL ILLINOIS

CITY           SKY/WX    TMP DP  RH WIND       PRES   REMARKS
ROCKFORD       CLOUDY    78  64  61 SW10G18   29.86F HX  80
6HR MIN TEMP:  63; 6HR MAX TEMP:  78;

$$

ILZ005-006-012>014-019>023-201900-
NORTHEAST ILLINOIS

CITY           SKY/WX    TMP DP  RH WIND       PRES   REMARKS
CHICAGO-OHARE  PTSUNNY   76  64  66 SW12      29.85R
6HR MIN TEMP:  63; 6HR MAX TEMP:  77;

CHICAGO-MIDWAY CLOUDY    78  66  66 SW13G22   29.86R HX  80
6HR MIN TEMP:  63; 6HR MAX TEMP:  80;

AURORA         CLOUDY    75  64  68 SW8       29.86S
6HR MIN TEMP:  56; 6HR MAX TEMP:  77;

WAUKEGAN       PTSUNNY   72  63  73 SW14G23   29.83R
6HR MIN TEMP:  63; 6HR MAX TEMP:  75;

DUPAGE AIRPORT PTSUNNY   74  64  71 SW14      29.86R
6HR MIN TEMP:  59; 6HR MAX TEMP:  78;

WHEELING       PTSUNNY   76  64  66 SW9       29.85S
6HR MIN TEMP:  64; 6HR MAX TEMP:  76;

NORTHERLY ISL    N/A     77  63  61 S13         N/A
$$

LMZ740>746-201900-
SOUTHERN LAKE MICHIGAN

STATION/POSITION SKY/WX   TEMP    WIND        PRES    VSBY  WAVE
                          AIR SEA DIR/SP/G                  HT/PER
                          (F)     (DEG/KT/KT) (MB)    (MI)  (FT/S)
SOUTHERN BUOY              64 63  200/ 16/ 17 1009.5F         4/ 6
WAUKEGAN HARBOR            73     230/ 13/ 18   N/A
HARRISON CRIB              72     210/ 22/ 26   N/A
BURNHAM HARBOR             77     220/ 10/ 14   N/A
CALUMET HARBOR             76     200/ 15/ 20 1009.7F
MICHIGAN CITY              74     190/ 18/ 22   N/A
MICHIGAN CITY 6N           73 65  210/ 17/ 23   N/A           3/ 4
ST. JOSEPH                 69 65  180/  8/ 10   N/A           3/ 4
$$

ILZ025>027-034>036-040-047-049-050-058-095>099-201900-
WEST-CENTRAL ILLINOIS

CITY           SKY/WX    TMP DP  RH WIND       PRES   REMARKS
QUINCY         PTSUNNY   78  69  73 SW14      29.93F HX  80
$$

ILZ028>032-037-038-041>044-048-051>054-059>061-201900-
CENTRAL ILLINOIS

CITY           SKY/WX    TMP DP  RH WIND       PRES   REMARKS
DECATUR        MOSUNNY   83  68  60 SW18G26   29.94F HX  86
PEORIA         PTSUNNY   80  67  64 W14       29.90R HX  82
6HR MIN TEMP:  61; 6HR MAX TEMP:  80;

SPRINGFIELD    PTSUNNY   82  69  64 SW14G21   29.92F HX  85
6HR MIN TEMP:  64; 6HR MAX TEMP:  82;

TAYLORVILLE    NOT AVBL
$$

ILZ033-039-045-046-055>057-062-063-201900-
EAST-CENTRAL ILLINOIS

CITY           SKY/WX    TMP DP  RH WIND       PRES   REMARKS
CHAMPAIGN      PTSUNNY   82  67  60 S20G29    29.94F HX  84
MATTOON        PTSUNNY   78  68  71 S10G21    29.97F HX  80
$$

ILZ079-100>102-201900-
SOUTHWEST ILLINOIS

CITY           SKY/WX    TMP DP  RH WIND       PRES   REMARKS
BELLEVILLE     PTSUNNY   83  70  65 VRB5      29.98F HX  87
CAHOKIA*       PTSUNNY   85  69  58 VRB7      29.98F HX  89
$$

ILZ064>066-069>071-074>076-080>082-084>086-088>090-092>094-201900-
SOUTH-CENTRAL ILLINOIS

CITY           SKY/WX    TMP DP  RH WIND       PRES   REMARKS
CARBONDALE     MOSUNNY   82  69  64 SW10      30.03F HX  85
6HR MIN TEMP:  59; 6HR MAX TEMP:  83;

MARION         PTSUNNY   84  68  58 SW12      30.04F HX  87
MT. VERNON     PTSUNNY   82  70  65 SW14G21   30.03F HX  86
$$

ILZ067-068-072-073-078-083-087-091-201900-
SOUTHEAST ILLINOIS

CITY           SKY/WX    TMP DP  RH WIND       PRES   REMARKS
LAWRENCEVILLE  PTSUNNY   82  68  62 W15       30.01F HX  85
$$

ABBREVIATIONS USED IN REMARKS
   TC - TEMPERATURE IN CELSIUS
  WCI - WIND CHILL INDEX
   HX - HEAT INDEX
  VSB - VISIBILITY
$$




USA.gov is the U.S. government's official web portal to all federal, state and local government web resources and services.